Weather History for Birmingham, AL

Change the Weather History Date:

Friday, January 24, 2014

  Actual Average Record
Temperature  
Mean Temperature 23 °F 44 °F  
Max Temperature 35 °F 54 °F 78 °F (1950)
Min Temperature 11 °F 34 °F -2 °F (1963)
Degree Days  
Heating Degree Days 42 21  
Month to date heating degree days 656 513  
Since 1 July heating degree days 1739 1560  
Moisture  
Dew Point -3 °F    
Average Humidity 38    
Maximum Humidity 58    
Minimum Humidity 17    
Precipitation  
Precipitation 0.00 in 0.17 in 2.45 in (1964)
Month to date precipitation 1.48 3.69  
Year to date precipitation 1.48 3.69  
Snow  
Snow 0.00 in 0.10 in - ()
Month to date snowfall 0.0 0.5  
Since 1 July snowfall 0.0 0.6  
Snow Depth 0.00 in    
Sea Level Pressure  
Sea Level Pressure 30.54 in    
Wind  
Wind Speed 5 mph (North)    
Max Wind Speed 15 mph    
Max Gust Speed 18 mph    
Visibility 10 miles    
Events      
T = Trace of Precipitation, MM = Missing Value Source: NWS Daily Summary

Daily Weather History Graph

Daily Weather History Graph

Search for Another Location

Airport:

Trip Planner

Search our weather history database for the weather conditions in past years. The results will help you decide how hot, cold, wet, or windy it might be!

Date:

Astronomy

Jan. 24, 2014 Rise Set
Actual Time 6:48 AM CST 5:10 PM CST
Civil Twilight 6:21 AM CST 5:37 PM CST
Nautical Twilight 5:51 AM CST 6:07 PM CST
Astronomical Twilight 5:21 AM CST 6:36 PM CST
Moon 12:18 AM CST (1/24) 11:25 AM CST (1/24)
Length of Visible Light 11h 15m
Length of Day
10h 22m
Last Quarter, 44% of the Moon is Illuminated
Jan 24
Last Quarter
Jan 30
New
Feb 6
First Quarter
Feb 14
Full
Feb 22
Last Quarter

Hourly Weather History & Observations

Time (CST) Temp. Windchill Dew Point Humidity Pressure Visibility Wind Dir Wind Speed Gust Speed Precip Events Conditions
12:53 AM 19.0 °F 8.2 °F -4.0 °F 36% 30.70 in 10.0 mi North 9.2 mph - N/A   Scattered Clouds
1:53 AM 18.0 °F 6.1 °F -4.0 °F 38% 30.71 in 10.0 mi North 10.4 mph - N/A   Partly Cloudy
2:53 AM 17.1 °F 5.0 °F -4.0 °F 39% 30.71 in 10.0 mi North 10.4 mph - N/A   Partly Cloudy
3:53 AM 16.0 °F 5.3 °F -2.9 °F 43% 30.70 in 10.0 mi North 8.1 mph - N/A   Scattered Clouds
4:53 AM 16.0 °F 5.3 °F -2.9 °F 43% 30.69 in 10.0 mi NNE 8.1 mph - N/A   Scattered Clouds
5:53 AM 14.0 °F 2.0 °F -2.0 °F 49% 30.69 in 10.0 mi North 9.2 mph - N/A   Partly Cloudy
6:53 AM 12.0 °F 2.7 °F -0.9 °F 56% 30.70 in 10.0 mi NNE 5.8 mph - N/A   Partly Cloudy
7:53 AM 15.1 °F 9.4 °F -0.0 °F 51% 30.69 in 10.0 mi NE 3.5 mph - N/A   Partly Cloudy
8:53 AM 18.0 °F 12.7 °F -2.0 °F 41% 30.68 in 10.0 mi Variable 3.5 mph - N/A   Partly Cloudy
9:53 AM 21.0 °F 13.4 °F -4.0 °F 33% 30.68 in 10.0 mi NNE 5.8 mph - N/A   Partly Cloudy
10:53 AM 25.0 °F 19.3 °F -4.0 °F 28% 30.64 in 10.0 mi NNE 4.6 mph - N/A   Partly Cloudy
11:53 AM 28.0 °F 22.8 °F -7.1 °F 22% 30.60 in 10.0 mi NNE 4.6 mph - N/A   Partly Cloudy
12:53 PM 30.9 °F - -5.1 °F 21% 30.54 in 10.0 mi Calm Calm - N/A   Partly Cloudy
1:53 PM 32.0 °F - -6.0 °F 19% 30.51 in 10.0 mi Calm Calm - N/A   Partly Cloudy
2:53 PM 33.1 °F - -7.1 °F 18% 30.48 in 10.0 mi Calm Calm - N/A   Partly Cloudy
3:53 PM 34.0 °F 28.8 °F -8.0 °F 16% 30.44 in 10.0 mi West 5.8 mph - N/A   Partly Cloudy
4:53 PM 32.0 °F 27.5 °F -8.0 °F 18% 30.43 in 10.0 mi WNW 4.6 mph - N/A   Partly Cloudy
5:53 PM 28.9 °F - -2.0 °F 26% 30.41 in 10.0 mi Calm Calm - N/A   Clear
6:53 PM 25.0 °F - 1.9 °F 37% 30.40 in 10.0 mi Calm Calm - N/A   Clear
7:53 PM 27.0 °F 19.5 °F -0.9 °F 30% 30.38 in 10.0 mi South 6.9 mph - N/A   Clear
8:53 PM 26.1 °F 20.5 °F -0.9 °F 31% 30.35 in 10.0 mi South 4.6 mph - N/A   Clear
9:53 PM 25.0 °F 19.3 °F -0.9 °F 33% 30.34 in 10.0 mi South 4.6 mph - N/A   Clear
10:53 PM 19.9 °F - 3.0 °F 48% 30.32 in 10.0 mi Calm Calm - N/A   Clear
11:53 PM 19.9 °F 14.9 °F 6.1 °F 55% 30.27 in 10.0 mi SSE 3.5 mph - N/A   Clear